Hourly Weather Alhimovo

Today, 26 November, Thursday

Time Temperature Precipitation Wind Pressure Humidity
00:00 +5°C° 0.2 mm 3 mps 757 mmHg 95%
01:00 +7°C° 0.2 mm 3 mps 757 mmHg 95%
02:00 +7°C° 0 mm 3 mps 757 mmHg 94%
03:00 +7°C° 0 mm 3 mps 756 mmHg 91%
04:00 +7°C° 0 mm 3 mps 756 mmHg 89%
05:00 +7°C° 0 mm 3 mps 755 mmHg 86%
06:00 +7°C° 0 mm 3 mps 755 mmHg 85%
07:00 +7°C° 0 mm 3 mps 755 mmHg 84%
08:00 +5°C° 0 mm 4 mps 755 mmHg 83%
09:00 +5°C° 0 mm 4 mps 755 mmHg 83%
10:00 +5°C° 0 mm 4 mps 755 mmHg 83%
11:00 +5°C° 0 mm 4 mps 754 mmHg 83%
12:00 +5°C° 0.1 mm 4 mps 754 mmHg 83%
13:00 +5°C° 0.1 mm 4 mps 754 mmHg 83%
14:00 +5°C° 0.1 mm 4 mps 754 mmHg 83%
15:00 +4°C° 0.4 mm 4 mps 753 mmHg 83%
16:00 +4°C° 0.4 mm 4 mps 753 mmHg 84%
17:00 +3°C° 0.4 mm 5 mps 752 mmHg 85%
18:00 +3°C° 0.2 mm 5 mps 752 mmHg 86%
19:00 +4°C° 0.2 mm 4 mps 752 mmHg 86%
20:00 +4°C° 0.2 mm 4 mps 751 mmHg 87%
21:00 +4°C° 0.3 mm 4 mps 751 mmHg 88%
22:00 +4°C° 0.3 mm 4 mps 751 mmHg 89%
23:00 +4°C° 0.3 mm 4 mps 751 mmHg 90%

Tomorrow, 27 November, Friday

Time Temperature Precipitation Wind Pressure Humidity
00:00 +4°C° 0.1 mm 3 mps 751 mmHg 90%
01:00 +5°C° 0.1 mm 2 mps 751 mmHg 90%
02:00 +5°C° 0.1 mm 2 mps 751 mmHg 91%
03:00 +4°C° 0.1 mm 2 mps 750 mmHg 91%
04:00 +4°C° 0.1 mm 2 mps 750 mmHg 92%
05:00 +3°C° 0.1 mm 2 mps 750 mmHg 93%
06:00 +3°C° 0 mm 2 mps 750 mmHg 91%
07:00 +2°C° 0 mm 3 mps 750 mmHg 90%
08:00 +1°C° 0 mm 3 mps 751 mmHg 88%
09:00 +1°C° 0 mm 3 mps 751 mmHg 85%
10:00 +1°C° 0 mm 3 mps 751 mmHg 83%
11:00 +1°C° 0 mm 3 mps 751 mmHg 80%
12:00 +1°C° 0.1 mm 3 mps 752 mmHg 84%
13:00 +1°C° 0.1 mm 3 mps 752 mmHg 87%
14:00 0°C° 0.1 mm 3 mps 753 mmHg 91%
15:00 0°C° 0.2 mm 3 mps 753 mmHg 92%
16:00 +1°C° 0.2 mm 2 mps 753 mmHg 93%
17:00 -1°C° 0.2 mm 2 mps 754 mmHg 94%
18:00 -1°C° 0 mm 2 mps 754 mmHg 93%
19:00 -1°C° 0 mm 2 mps 755 mmHg 91%
20:00 -1°C° 0 mm 3 mps 756 mmHg 90%
21:00 -1°C° 0 mm 3 mps 756 mmHg 88%
22:00 -1°C° 0 mm 3 mps 757 mmHg 86%
23:00 0°C° 0 mm 3 mps 757 mmHg 85%

Day after tomorrow, 28 November, Saturday

Time Temperature Precipitation Wind Pressure Humidity
00:00 0°C° 0 mm 3 mps 758 mmHg 85%
01:00 0°C° 0 mm 3 mps 758 mmHg 86%
02:00 0°C° 0 mm 3 mps 758 mmHg 86%
03:00 0°C° 0 mm 3 mps 759 mmHg 87%
04:00 0°C° 0 mm 3 mps 759 mmHg 88%
05:00 0°C° 0 mm 4 mps 759 mmHg 90%
06:00 0°C° 0 mm 4 mps 760 mmHg 91%
07:00 0°C° 0 mm 4 mps 760 mmHg 93%
08:00 0°C° 0 mm 4 mps 761 mmHg 94%
09:00 0°C° 0 mm 4 mps 761 mmHg 93%
10:00 0°C° 0 mm 4 mps 761 mmHg 91%
11:00 0°C° 0 mm 4 mps 762 mmHg 89%
12:00 0°C° 0 mm 4 mps 762 mmHg 86%
13:00 0°C° 0 mm 4 mps 763 mmHg 84%
14:00 -1°C° 0 mm 4 mps 763 mmHg 81%
15:00 -1°C° 0 mm 4 mps 763 mmHg 82%
16:00 0°C° 0 mm 3 mps 763 mmHg 83%
17:00 0°C° 0 mm 3 mps 764 mmHg 84%
18:00 -1°C° 0 mm 3 mps 764 mmHg 85%
19:00 -1°C° 0 mm 3 mps 764 mmHg 86%
20:00 -1°C° 0 mm 3 mps 765 mmHg 88%
21:00 -1°C° 0 mm 3 mps 765 mmHg 88%
22:00 -1°C° 0 mm 3 mps 765 mmHg 89%
23:00 -1°C° 0 mm 3 mps 765 mmHg 89%

29 November, Sunday

Time Temperature Precipitation Wind Pressure Humidity
00:00 -1°C° 0 mm 3 mps 765 mmHg 89%
01:00 -2°C° 0 mm 3 mps 765 mmHg 89%
02:00 -2°C° 0 mm 3 mps 765 mmHg 88%
03:00 -2°C° 0 mm 3 mps 765 mmHg 88%
04:00 -2°C° 0 mm 3 mps 765 mmHg 87%
05:00 -2°C° 0 mm 3 mps 765 mmHg 86%
06:00 -2°C° 0 mm 3 mps 765 mmHg 86%
07:00 -2°C° 0 mm 3 mps 765 mmHg 86%
08:00 -2°C° 0 mm 3 mps 766 mmHg 86%
09:00 -2°C° 0 mm 3 mps 766 mmHg 85%
10:00 -2°C° 0 mm 3 mps 766 mmHg 84%
11:00 -1°C° 0 mm 3 mps 766 mmHg 83%
12:00 -1°C° 0 mm 3 mps 766 mmHg 84%
13:00 -1°C° 0 mm 3 mps 766 mmHg 84%
14:00 -1°C° 0 mm 3 mps 765 mmHg 85%
15:00 -1°C° 0 mm 3 mps 765 mmHg 85%
16:00 -1°C° 0 mm 3 mps 765 mmHg 86%
17:00 -1°C° 0 mm 3 mps 765 mmHg 86%
18:00 -2°C° 0 mm 3 mps 765 mmHg 86%
19:00 -2°C° 0 mm 3 mps 765 mmHg 86%
20:00 -2°C° 0 mm 3 mps 764 mmHg 86%
21:00 -2°C° 0 mm 3 mps 764 mmHg 87%
22:00 -2°C° 0 mm 3 mps 764 mmHg 88%
23:00 -2°C° 0 mm 3 mps 763 mmHg 90%

30 November, Monday

Time Temperature Precipitation Wind Pressure Humidity
00:00 -2°C° 0 mm 3 mps 763 mmHg 91%
01:00 -2°C° 0 mm 3 mps 762 mmHg 92%
02:00 -2°C° 0 mm 3 mps 762 mmHg 93%
03:00 -2°C° 0.1 mm 3 mps 761 mmHg 94%
04:00 -1°C° 0.1 mm 3 mps 760 mmHg 95%
05:00 -1°C° 0.1 mm 3 mps 760 mmHg 96%
06:00 0°C° 0.3 mm 3 mps 760 mmHg 96%
07:00 0°C° 0.3 mm 3 mps 759 mmHg 97%
08:00 +1°C° 0.3 mm 3 mps 759 mmHg 97%
09:00 +2°C° 0.7 mm 2 mps 759 mmHg 97%
10:00 +2°C° 0.7 mm 2 mps 759 mmHg 98%
11:00 +2°C° 0.7 mm 2 mps 759 mmHg 98%
12:00 +2°C° 0.4 mm 2 mps 759 mmHg 96%
13:00 0°C° 0.4 mm 3 mps 759 mmHg 95%
14:00 0°C° 0.4 mm 3 mps 759 mmHg 94%
15:00 0°C° 0.3 mm 3 mps 759 mmHg 94%
16:00 -1°C° 0.3 mm 3 mps 759 mmHg 95%
17:00 -1°C° 0.3 mm 3 mps 759 mmHg 96%
18:00 -1°C° 0.3 mm 3 mps 760 mmHg 96%
19:00 -1°C° 0.3 mm 3 mps 760 mmHg 96%
20:00 -1°C° 0.3 mm 3 mps 760 mmHg 96%
21:00 -1°C° 0.1 mm 3 mps 761 mmHg 94%
22:00 -2°C° 0.1 mm 3 mps 761 mmHg 92%
23:00 -2°C° 0.1 mm 3 mps 762 mmHg 90%

1 December, Tuesday

Time Temperature Precipitation Wind Pressure Humidity
00:00 -2°C° 0 mm 3 mps 762 mmHg 89%
01:00 -4°C° 0 mm 3 mps 762 mmHg 88%
02:00 -4°C° 0 mm 4 mps 762 mmHg 88%
03:00 -4°C° 0 mm 4 mps 762 mmHg 88%
04:00 -4°C° 0 mm 4 mps 762 mmHg 89%
05:00 -5°C° 0 mm 5 mps 762 mmHg 89%
06:00 -4°C° 0 mm 5 mps 762 mmHg 89%
07:00 -2°C° 0 mm 5 mps 762 mmHg 89%
08:00 -1°C° 0 mm 5 mps 762 mmHg 89%
09:00 -1°C° 0 mm 5 mps 762 mmHg 89%
10:00 -1°C° 0 mm 6 mps 763 mmHg 89%
11:00 -1°C° 0 mm 6 mps 763 mmHg 89%
12:00 0°C° 0 mm 5 mps 763 mmHg 89%
13:00 0°C° 0 mm 5 mps 763 mmHg 89%
14:00 0°C° 0 mm 5 mps 763 mmHg 89%
15:00 0°C° 0 mm 5 mps 763 mmHg 88%
16:00 0°C° 0 mm 4 mps 764 mmHg 88%
17:00 0°C° 0 mm 4 mps 764 mmHg 87%
18:00 -1°C° 0 mm 4 mps 764 mmHg 87%
19:00 -1°C° 0 mm 4 mps 765 mmHg 87%
20:00 -1°C° 0 mm 4 mps 765 mmHg 87%
21:00 -1°C° 0 mm 4 mps 765 mmHg 87%
22:00 -1°C° 0 mm 4 mps 766 mmHg 87%
23:00 -1°C° 0 mm 4 mps 766 mmHg 86%
Show more